WGS F1 (USA 195)

Last updated on Wed Jul 09 2025 00:02:43 GMT+0000 (Coordinated Universal Time)

1 32258U 07046A 25189.42802269 -.00000251 00000+0 00000+0 0 9992 2 32258 0.0571 87.9552 0001069 97.2626 213.0138 1.00272748 48886
UTC large
Height (km)
Speed (km/s)
/
Latitude / Longitude
Inclination (degrees)
Orbital Period (minutes)
Azimuth
Elevation
Range (km)
Doppler Factor

Next 0 passes for location: London (51.5072 / 0.1276)

Sorry there are no passes over London.